TimeCST,TemperatureF,Dew PointF,Humidity,Sea Level PressureIn,VisibilityMPH,Wind Direction,Wind SpeedMPH,Gust SpeedMPH,PrecipitationIn,Events,Conditions,WindDirDegrees,DateUTC
12:54 AM,19.0,14.0,81,30.29,8.0,NE,5.8,-,N/A,,Clear,40,2013-01-26 06:54:00
1:54 AM,18.0,10.9,74,30.28,10.0,NE,5.8,-,N/A,,Clear,40,2013-01-26 07:54:00
2:54 AM,18.0,10.9,74,30.29,10.0,East,4.6,-,N/A,,Clear,90,2013-01-26 08:54:00
3:54 AM,16.0,10.0,77,30.28,10.0,SE,6.9,-,N/A,,Clear,140,2013-01-26 09:54:00
4:54 AM,16.0,9.0,74,30.27,10.0,ESE,5.8,-,N/A,,Clear,110,2013-01-26 10:54:00
5:54 AM,15.1,8.1,74,30.29,10.0,ESE,6.9,-,N/A,,Clear,110,2013-01-26 11:54:00
6:54 AM,15.1,6.1,68,30.30,10.0,ESE,9.2,-,N/A,,Partly Cloudy,110,2013-01-26 12:54:00
7:54 AM,14.0,6.1,71,30.29,10.0,SE,10.4,-,N/A,,Clear,130,2013-01-26 13:54:00
8:54 AM,16.0,7.0,68,30.29,10.0,SE,11.5,-,N/A,,Clear,130,2013-01-26 14:54:00
9:54 AM,19.9,10.0,65,30.27,10.0,SE,17.3,-,N/A,,Clear,140,2013-01-26 15:54:00
10:54 AM,25.0,12.9,60,30.27,9.0,SSE,16.1,-,N/A,,Clear,150,2013-01-26 16:54:00
11:54 AM,30.0,17.1,59,30.23,9.0,SSE,13.8,-,N/A,,Partly Cloudy,150,2013-01-26 17:54:00
12:54 PM,36.0,19.9,52,30.18,8.0,SSE,13.8,-,N/A,,Overcast,150,2013-01-26 18:54:00
1:54 PM,37.9,21.9,53,30.14,8.0,SE,12.7,-,N/A,,Partly Cloudy,140,2013-01-26 19:54:00
2:54 PM,43.0,24.1,47,30.10,9.0,SSE,15.0,-,N/A,,Clear,150,2013-01-26 20:54:00
3:54 PM,43.0,24.1,47,30.08,8.0,SSE,13.8,-,N/A,,Clear,150,2013-01-26 21:54:00
4:54 PM,43.0,26.1,51,30.06,8.0,SSE,13.8,-,N/A,,Clear,150,2013-01-26 22:54:00
5:54 PM,39.0,26.1,60,30.04,8.0,SE,13.8,-,N/A,,Clear,140,2013-01-26 23:54:00
6:54 PM,39.0,26.1,60,30.05,8.0,SSE,15.0,-,N/A,,Partly Cloudy,150,2013-01-27 00:54:00
7:54 PM,37.9,26.1,62,30.05,8.0,SSE,15.0,-,N/A,,Clear,150,2013-01-27 01:54:00
8:54 PM,36.0,25.0,64,30.06,8.0,SE,12.7,-,N/A,,Scattered Clouds,140,2013-01-27 02:54:00
9:54 PM,35.1,25.0,67,30.04,8.0,SE,12.7,-,N/A,,Clear,140,2013-01-27 03:54:00
10:54 PM,36.0,25.0,64,30.04,8.0,SE,12.7,-,N/A,,Clear,140,2013-01-27 04:54:00
11:54 PM,36.0,24.1,62,30.03,9.0,SE,13.8,-,N/A,,Mostly Cloudy,130,2013-01-27 05:54:00